TimeEDT,TemperatureF,Dew PointF,Humidity,Sea Level PressureIn,VisibilityMPH,Wind Direction,Wind SpeedMPH,Gust SpeedMPH,PrecipitationIn,Events,Conditions,WindDirDegrees,DateUTC
12:54 AM,39.9,28.0,63,30.38,10.0,East,3.5,-,N/A,,Clear,100,2013-04-23 04:54:00
1:54 AM,39.0,27.0,62,30.37,10.0,East,5.8,-,N/A,,Clear,90,2013-04-23 05:54:00
2:54 AM,37.0,27.0,67,30.35,10.0,East,3.5,-,N/A,,Clear,90,2013-04-23 06:54:00
3:54 AM,36.0,27.0,70,30.36,10.0,East,3.5,-,N/A,,Clear,90,2013-04-23 07:54:00
4:54 AM,33.1,26.1,75,30.35,10.0,North,4.6,-,N/A,,Clear,360,2013-04-23 08:54:00
6:54 AM,28.9,26.1,89,30.33,10.0,North,5.8,-,N/A,,Clear,360,2013-04-23 10:54:00
7:54 AM,35.1,28.0,76,30.32,10.0,NNE,4.6,-,N/A,,Clear,20,2013-04-23 11:54:00
8:54 AM,41.0,30.0,65,30.30,10.0,Calm,Calm,-,N/A,,Clear,0,2013-04-23 12:54:00
9:54 AM,46.9,30.9,54,30.27,10.0,East,3.5,-,N/A,,Clear,100,2013-04-23 13:54:00
10:54 AM,50.0,30.9,48,30.24,10.0,ESE,4.6,-,N/A,,Clear,120,2013-04-23 14:54:00
11:54 AM,53.1,30.9,43,30.23,10.0,Calm,Calm,-,N/A,,Clear,0,2013-04-23 15:54:00
12:54 PM,57.0,30.9,37,30.22,10.0,Calm,Calm,-,N/A,,Clear,0,2013-04-23 16:54:00
1:54 PM,59.0,28.9,32,30.19,10.0,Variable,4.6,-,N/A,,Clear,0,2013-04-23 17:54:00
2:54 PM,62.1,30.9,31,30.15,10.0,Variable,5.8,-,N/A,,Clear,0,2013-04-23 18:54:00
3:54 PM,64.9,30.0,27,30.11,10.0,Variable,5.8,-,N/A,,Clear,0,2013-04-23 19:54:00
4:54 PM,64.9,30.9,28,30.09,10.0,East,8.1,-,N/A,,Clear,100,2013-04-23 20:54:00
5:54 PM,64.0,32.0,30,30.09,10.0,SE,6.9,-,N/A,,Clear,130,2013-04-23 21:54:00
6:54 PM,61.0,33.1,35,30.08,10.0,SE,4.6,-,N/A,,Clear,130,2013-04-23 22:54:00
7:54 PM,57.0,34.0,42,30.09,10.0,SE,3.5,-,N/A,,Clear,140,2013-04-23 23:54:00
8:54 PM,54.0,34.0,47,30.10,10.0,SE,4.6,-,N/A,,Clear,130,2013-04-24 00:54:00
9:54 PM,51.1,34.0,52,30.10,10.0,ESE,3.5,-,N/A,,Clear,110,2013-04-24 01:54:00
10:54 PM,50.0,34.0,54,30.07,10.0,East,3.5,-,N/A,,Clear,100,2013-04-24 02:54:00
11:54 PM,48.9,35.1,59,30.06,10.0,Calm,Calm,-,N/A,,Clear,0,2013-04-24 03:54:00